Regional Weather Roundup
Issued by NWS Charleston, WV

Home | Current Version | Previous Version | Text Only | Print | Product List | Glossary Off
Versions: 1 2 3 4 5 6 7 8 9 10 11 12 13 14 15 16 17 18 19 20 21 22 23 24 25 26 27 28 29 30 31 32 33 34 35 36 37 38 39 40 41 42 43 44 45 46 47 48 49 50

000
ASUS41 KRLX 101710
RWRRLX
West Virginia Regional Weather Roundup
National Weather Service Charleston WV
1200 PM EST WED FEB 10 2016

Note: "fair" indicates few or no clouds below 12,000 feet with no
significant weather and/or obstructions to visibility.

WVZ003-101800-
Northern Panhandle of West Virginia

CITY           SKY/WX    TMP DP  RH WIND       PRES   REMARKS
WHEELING       LGT SNOW  18  10  71 SW16G26   29.84S WCI   3
$$

WVZ009-101800-
Northwest West Virginia

CITY           SKY/WX    TMP DP  RH WIND       PRES   REMARKS
PARKERSBURG    LGT SNOW  19  13  77 W9G17     29.97R WCI   8
$$

WVZ006-101800-
Western West Virginia

CITY           SKY/WX    TMP DP  RH WIND       PRES   REMARKS
HUNTINGTON     FLURRIES  21   8  57 W8G20     30.00S
$$

WVZ015-101800-
West Central West Virginia

CITY           SKY/WX    TMP DP  RH WIND       PRES   REMARKS
CHARLESTON     LGT SNOW  19  13  77 W13G18    29.96F WCI   6
$$

WVZ022-031-101800-
North Central West Virginia

CITY           SKY/WX    TMP DP  RH WIND       PRES   REMARKS
CLARKSBURG     FLURRIES  18   8  65 W12       29.89S WCI   5
MORGANTOWN     CLOUDY    18   7  62 SW14G20   29.86F WCI   4
$$

WVZ025-035-042-045-101800-
Southern West Virginia

CITY           SKY/WX    TMP DP  RH WIND       PRES   REMARKS
BECKLEY        CLOUDY    15   3  59 W13G23    29.83F WCI   1
LOGAN          CLOUDY    18  10  73 W9        29.93S WCI   6
BLUEFIELD      LGT SNOW  13   5  70 W9G24     29.81F WCI   1
LEWISBURG      PTSUNNY   23   9  55 NW10G21   29.82F
$$

WVZ047-101800-
Northern Mountains of West Virginia

CITY           SKY/WX    TMP DP  RH WIND       PRES   REMARKS
ELKINS         LGT SNOW  16   6  65 W7        29.83S WCI   6
$$

WVZ052-101800-
Eastern Panhandle of West Virginia

CITY           SKY/WX    TMP DP  RH WIND       PRES   REMARKS
MARTINSBURG    PTSUNNY   31  12  45 W18G26    29.80F
PETERSBURG     PTSUNNY   28   8  43 SW15G24   29.83F
$$



USA.gov is the U.S. government's official web portal to all federal, state and local government web resources and services.